,,Stat6,,Stat2,,Stat8,,Stat9,,Stat10,,Wind1,,Wind1,
time,status,PA1M_AVG,status,PR1M_SUM,status,RH1M_AVG,status,SR1M_AVG,status,TA1M_AVG,status,W1dAve1m,status,W1sAve1m,
2004-03-13, 00:00:00,VALID,919.11,VALID,0,VALID,99.1356,VALID,-0.0679233,VALID,20.2482,VALID,128,VALID,0.849964,
2004-03-13, 00:01:00,VALID,919.098,VALID,0,VALID,99.2475,VALID,0,VALID,20.2663,VALID,129,VALID,0.761896,
2004-03-13, 00:02:00,VALID,919.085,VALID,0,VALID,99.306,VALID,-0.0169808,VALID,20.2954,VALID,126,VALID,0.753906,
2004-03-13, 00:03:00,VALID,919.076,VALID,0,VALID,99.1788,VALID,0,VALID,20.3024,VALID,125,VALID,0.563072,
2004-03-13, 00:04:00,VALID,919.06,VALID,0,VALID,98.9525,VALID,0,VALID,20.2701,VALID,125,VALID,0.22526,
2004-03-13, 00:05:00,VALID,919.066,VALID,0,VALID,98.3726,VALID,0,VALID,20.1538,VALID,125,VALID,0.0450149,
2004-03-13, 00:06:00,VALID,919.042,VALID,0,VALID,98.3548,VALID,0,VALID,20.1016,VALID,125,VALID,0.018821,
2004-03-13, 00:07:00,VALID,919.024,VALID,0,VALID,98.5188,VALID,0,VALID,20.0957,VALID,125,VALID,0,
2004-03-13, 00:08:00,VALID,919.018,VALID,0,VALID,98.5862,VALID,0,VALID,20.1056,VALID,125,VALID,0,
2004-03-13, 00:09:00,VALID,919.012,VALID,0,VALID,98.66,VALID,0,VALID,20.1084,VALID,125,VALID,0,
2004-03-13, 00:10:00,VALID,919.014,VALID,0,VALID,98.7719,VALID,0.0169808,VALID,20.1245,VALID,125,VALID,0,
2004-03-13, 00:11:00,VALID,919.028,VALID,0,VALID,98.8723,VALID,-0.0509425,VALID,20.1407,VALID,125,VALID,0,
2004-03-13, 00:12:00,VALID,919.049,VALID,0,VALID,98.8749,VALID,0,VALID,20.1764,VALID,125,VALID,0,
2004-03-13, 00:13:00,VALID,919.056,VALID,0,VALID,98.8507,VALID,0,VALID,20.1695,VALID,125,VALID,0,
2004-03-13, 00:14:00,VALID,919.085,VALID,0,VALID,98.7643,VALID,0,VALID,20.1797,VALID,125,VALID,0,
2004-03-13, 00:15:00,VALID,919.101,VALID,0,VALID,98.5455,VALID,-0.0169808,VALID,20.1506,VALID,125,VALID,0.00952744,
2004-03-13, 00:16:00,VALID,919.104,VALID,0,VALID,98.3955,VALID,-0.0169808,VALID,20.1151,VALID,125,VALID,0.129084,
2004-03-13, 00:17:00,VALID,919.124,VALID,0,VALID,97.8296,VALID,0,VALID,20.0542,VALID,120,VALID,0.383003,
2004-03-13, 00:18:00,VALID,919.122,VALID,0,VALID,97.7381,VALID,0.0169808,VALID,19.9668,VALID,76,VALID,0.68559,
2004-03-13, 00:19:00,VALID,919.105,VALID,0,VALID,97.9695,VALID,0,VALID,19.9469,VALID,68,VALID,0.849201,
2004-03-13, 00:20:00,VALID,919.102,VALID,0,VALID,98.3853,VALID,0,VALID,19.9899,VALID,67,VALID,1.0199,
2004-03-13, 00:21:00,VALID,919.109,VALID,0,VALID,98.6791,VALID,0,VALID,20.0184,VALID,67,VALID,0.958394,
2004-03-13, 00:22:00,VALID,919.124,VALID,0,VALID,98.9181,VALID,0,VALID,20.0733,VALID,69,VALID,0.910974,
2004-03-13, 00:23:00,VALID,919.14,VALID,0,VALID,99.016,VALID,-0.0509425,VALID,20.1089,VALID,74,VALID,0.831854,
2004-03-13, 00:24:00,VALID,919.151,VALID,0,VALID,98.9779,VALID,-0.0169808,VALID,20.1277,VALID,78,VALID,0.806548,
2004-03-13, 00:25:00,VALID,919.167,VALID,0,VALID,98.9715,VALID,-0.0509425,VALID,20.1638,VALID,78,VALID,0.81907,
2004-03-13, 00:26:00,VALID,919.18,VALID,0,VALID,98.852,VALID,0,VALID,20.1797,VALID,78,VALID,0.766578,
2004-03-13, 00:27:00,VALID,919.165,VALID,0,VALID,98.5621,VALID,0,VALID,20.1794,VALID,78,VALID,0.755451,
2004-03-13, 00:28:00,VALID,919.147,VALID,0,VALID,98.4387,VALID,0,VALID,20.1767,VALID,78,VALID,0.779762,
2004-03-13, 00:29:00,VALID,919.13,VALID,0,VALID,98.4031,VALID,-0.0339617,VALID,20.1802,VALID,78,VALID,0.751116,
2004-03-13, 00:30:00,VALID,919.111,VALID,0,VALID,98.4781,VALID,-0.0339617,VALID,20.1737,VALID,76,VALID,0.909157,
2004-03-13, 00:31:00,VALID,919.113,VALID,0,VALID,98.5227,VALID,-0.0849042,VALID,20.1812,VALID,76,VALID,0.882102,
2004-03-13, 00:32:00,VALID,919.104,VALID,0,VALID,98.4158,VALID,-0.135847,VALID,20.1817,VALID,82,VALID,0.772135,
2004-03-13, 00:33:00,VALID,919.088,VALID,0,VALID,98.3815,VALID,-0.101885,VALID,20.1583,VALID,88,VALID,0.745236,
2004-03-13, 00:34:00,VALID,919.071,VALID,0,VALID,98.3612,VALID,-0.0679233,VALID,20.1392,VALID,104,VALID,0.832292,
2004-03-13, 00:35:00,VALID,919.068,VALID,0,VALID,98.3243,VALID,-0.101885,VALID,20.1002,VALID,107,VALID,0.688058,
2004-03-13, 00:36:00,VALID,919.065,VALID,0,VALID,98.4146,VALID,-0.101885,VALID,20.0813,VALID,112,VALID,0.772195,
2004-03-13, 00:37:00,VALID,919.076,VALID,0,VALID,98.4934,VALID,-0.118866,VALID,20.0416,VALID,114,VALID,0.837271,
2004-03-13, 00:38:00,VALID,919.083,VALID,0,VALID,98.4947,VALID,-0.101885,VALID,20.0194,VALID,124,VALID,0.827172,
2004-03-13, 00:39:00,VALID,919.094,VALID,0,VALID,98.6091,VALID,-0.101885,VALID,20.0041,VALID,115,VALID,0.712153,
2004-03-13, 00:40:00,VALID,919.102,VALID,0,VALID,98.7096,VALID,-0.101885,VALID,19.9742,VALID,113,VALID,0.745458,
2004-03-13, 00:41:00,VALID,919.109,VALID,0,VALID,98.913,VALID,-0.101885,VALID,19.9775,VALID,105,VALID,1.00434,
2004-03-13, 00:42:00,VALID,919.124,VALID,0,VALID,99.0148,VALID,-0.101885,VALID,19.9804,VALID,98,VALID,0.889353,
2004-03-13, 00:43:00,VALID,919.137,VALID,0,VALID,99.1101,VALID,-0.0849042,VALID,19.9906,VALID,95,VALID,0.949033,
2004-03-13, 00:44:00,VALID,919.149,VALID,0,VALID,99.1661,VALID,-0.101885,VALID,19.9839,VALID,107,VALID,1.19833,
2004-03-13, 00:45:00,VALID,919.153,VALID,0,VALID,99.2157,VALID,-0.0849042,VALID,19.9802,VALID,110,VALID,1.11814,
2004-03-13, 00:46:00,VALID,919.173,VALID,0,VALID,99.2691,VALID,0,VALID,19.9991,VALID,125,VALID,1.13333,
2004-03-13, 00:47:00,VALID,919.18,VALID,0,VALID,99.4293,VALID,0,VALID,20.0184,VALID,129,VALID,1.47493,
2004-03-13, 00:48:00,VALID,919.159,VALID,0,VALID,99.4636,VALID,0.0169808,VALID,20.0413,VALID,135,VALID,1.33817,
2004-03-13, 00:49:00,VALID,919.155,VALID,0,VALID,99.3784,VALID,0.0169808,VALID,20.0574,VALID,128,VALID,1.08685,
2004-03-13, 00:50:00,VALID,919.142,VALID,0,VALID,99.2767,VALID,0,VALID,20.0448,VALID,128,VALID,1.33333,
2004-03-13, 00:51:00,VALID,919.111,VALID,0,VALID,99.175,VALID,0.0339617,VALID,20.0443,VALID,137,VALID,1.01651,
2004-03-13, 00:52:00,VALID,919.092,VALID,0,VALID,99.0109,VALID,0,VALID,20.0376,VALID,126,VALID,0.77846,
2004-03-13, 00:53:00,VALID,919.08,VALID,0,VALID,98.9079,VALID,-0.0169808,VALID,20.0281,VALID,129,VALID,1.29059,
2004-03-13, 00:54:00,VALID,919.045,VALID,0,VALID,98.7948,VALID,0,VALID,20.0179,VALID,130,VALID,1.24165,
2004-03-13, 00:55:00,VALID,919.01,VALID,0,VALID,98.6676,VALID,0,VALID,20.0284,VALID,122,VALID,1.03478,
2004-03-13, 00:56:00,VALID,918.994,VALID,0,VALID,98.5659,VALID,0,VALID,20.0184,VALID,126,VALID,0.856357,
2004-03-13, 00:57:00,VALID,918.955,VALID,0,VALID,98.5608,VALID,0.0169808,VALID,20.0217,VALID,122,VALID,0.862645,
2004-03-13, 00:58:00,VALID,918.933,VALID,0,VALID,98.4565,VALID,0,VALID,20.0147,VALID,127,VALID,0.687863,
2004-03-13, 00:59:00,VALID,918.911,VALID,0,VALID,98.4184,VALID,-0.0169808,VALID,20.012,VALID,128,VALID,1.04573,
2004-03-13, 01:00:00,VALID,918.89,VALID,0,VALID,98.3612,VALID,0,VALID,19.9993,VALID,129,VALID,1.0904,
2004-03-13, 01:01:00,VALID,918.884,VALID,0,VALID,98.4196,VALID,-0.0169808,VALID,19.9991,VALID,136,VALID,1.12965,
2004-03-13, 01:02:00,VALID,918.88,VALID,0,VALID,98.4705,VALID,0,VALID,20.0025,VALID,137,VALID,1.06289,
2004-03-13, 01:03:00,VALID,918.896,VALID,0,VALID,98.4629,VALID,0,VALID,19.9996,VALID,142,VALID,0.931641,
2004-03-13, 01:04:00,VALID,918.885,VALID,0,VALID,98.4387,VALID,0,VALID,19.9859,VALID,140,VALID,1.01687,
2004-03-13, 01:05:00,VALID,918.872,VALID,0,VALID,98.3726,VALID,0.0169808,VALID,19.9896,VALID,131,VALID,0.923209,
2004-03-13, 01:06:00,VALID,918.86,VALID,0,VALID,98.3243,VALID,0,VALID,19.9633,VALID,134,VALID,1.02805,
2004-03-13, 01:07:00,VALID,918.852,VALID,0,VALID,98.3256,VALID,0,VALID,19.9598,VALID,125,VALID,0.621528,
2004-03-13, 01:08:00,VALID,918.841,VALID,0,VALID,98.2264,VALID,0,VALID,19.9506,VALID,124,VALID,0.428445,
2004-03-13, 01:09:00,VALID,918.82,VALID,0,VALID,98.3141,VALID,0,VALID,19.9471,VALID,122,VALID,0.196484,
2004-03-13, 01:10:00,VALID,918.795,VALID,0,VALID,98.4057,VALID,0.0169808,VALID,19.9568,VALID,122,VALID,0.319727,
2004-03-13, 01:11:00,VALID,918.769,VALID,0,VALID,98.4476,VALID,0,VALID,19.9635,VALID,120,VALID,0.587462,
2004-03-13, 01:12:00,VALID,918.74,VALID,0,VALID,98.4654,VALID,-0.0169808,VALID,19.9794,VALID,120,VALID,0.570871,
2004-03-13, 01:13:00,VALID,918.707,VALID,0,VALID,98.3904,VALID,0,VALID,19.9988,VALID,120,VALID,0.661882,
2004-03-13, 01:14:00,VALID,918.684,VALID,0,VALID,98.1641,VALID,0.0169808,VALID,19.9996,VALID,125,VALID,0.688988,
2004-03-13, 01:15:00,VALID,918.672,VALID,0,VALID,98.1488,VALID,-0.0169808,VALID,19.973,VALID,126,VALID,0.499047,
2004-03-13, 01:16:00,VALID,918.657,VALID,0,VALID,98.1971,VALID,-0.0849042,VALID,19.9874,VALID,127,VALID,0.555078,
2004-03-13, 01:17:00,VALID,918.633,VALID,0,VALID,98.1132,VALID,-0.0849042,VALID,19.9976,VALID,127,VALID,0.62832,
2004-03-13, 01:18:00,VALID,918.619,VALID,0,VALID,97.8525,VALID,-0.0849042,VALID,19.9785,VALID,127,VALID,0.429315,
2004-03-13, 01:19:00,VALID,918.587,VALID,0,VALID,97.8563,VALID,-0.0679233,VALID,19.9489,VALID,127,VALID,0.708705,
2004-03-13, 01:20:00,VALID,918.563,VALID,0,VALID,98.0229,VALID,-0.101885,VALID,19.939,VALID,130,VALID,0.65625,
2004-03-13, 01:21:00,VALID,918.548,VALID,0,VALID,98.0712,VALID,-0.101885,VALID,19.9357,VALID,140,VALID,0.755087,
2004-03-13, 01:22:00,VALID,918.527,VALID,0,VALID,98.0115,VALID,-0.101885,VALID,19.9298,VALID,146,VALID,0.992365,
2004-03-13, 01:23:00,VALID,918.511,VALID,0,VALID,97.9288,VALID,-0.0849042,VALID,19.9265,VALID,140,VALID,0.829613,
2004-03-13, 01:24:00,VALID,918.478,VALID,0,VALID,97.9046,VALID,-0.0849042,VALID,19.9362,VALID,138,VALID,0.796094,
2004-03-13, 01:25:00,VALID,918.451,VALID,0,VALID,97.897,VALID,-0.0849042,VALID,19.936,VALID,137,VALID,0.785689,
2004-03-13, 01:26:00,VALID,918.42,VALID,0,VALID,97.8334,VALID,-0.101885,VALID,19.94,VALID,138,VALID,0.640807,
2004-03-13, 01:27:00,VALID,918.385,VALID,0,VALID,97.8347,VALID,-0.101885,VALID,19.9263,VALID,136,VALID,0.834666,
2004-03-13, 01:28:00,VALID,918.365,VALID,0,VALID,97.85,VALID,-0.101885,VALID,19.9069,VALID,141,VALID,0.874273,
2004-03-13, 01:29:00,VALID,918.344,VALID,0,VALID,97.9225,VALID,-0.101885,VALID,19.8709,VALID,140,VALID,0.899891,
2004-03-13, 01:30:00,VALID,918.32,VALID,0,VALID,97.9225,VALID,-0.0679233,VALID,19.855,VALID,132,VALID,1.06306,
2004-03-13, 01:31:00,VALID,918.311,VALID,0,VALID,97.9682,VALID,0,VALID,19.8284,VALID,118,VALID,0.817708,
2004-03-13, 01:32:00,VALID,918.312,VALID,0,VALID,98.0572,VALID,0,VALID,19.7889,VALID,104,VALID,0.827947,
2004-03-13, 01:33:00,VALID,918.309,VALID,0,VALID,98.3128,VALID,0.0169808,VALID,19.7797,VALID,91,VALID,0.806463,
2004-03-13, 01:34:00,VALID,918.287,VALID,0,VALID,98.4235,VALID,-0.0169808,VALID,19.7666,VALID,105,VALID,0.800781,
2004-03-13, 01:35:00,VALID,918.273,VALID,0,VALID,98.487,VALID,0,VALID,19.7603,VALID,102,VALID,0.806895,
2004-03-13, 01:36:00,VALID,918.256,VALID,0,VALID,98.4692,VALID,0.0169808,VALID,19.7345,VALID,109,VALID,0.76527,
2004-03-13, 01:37:00,VALID,918.249,VALID,0,VALID,98.6396,VALID,0.0169808,VALID,19.7087,VALID,118,VALID,1.16479,
2004-03-13, 01:38:00,VALID,918.244,VALID,0,VALID,98.81,VALID,0,VALID,19.6958,VALID,121,VALID,1.15934,
2004-03-13, 01:39:00,VALID,918.235,VALID,0,VALID,98.927,VALID,0.0169808,VALID,19.6888,VALID,124,VALID,0.86701,
2004-03-13, 01:40:00,VALID,918.235,VALID,0,VALID,98.9741,VALID,0,VALID,19.6697,VALID,109,VALID,0.838481,
2004-03-13, 01:41:00,VALID,918.221,VALID,0,VALID,98.9436,VALID,0.0169808,VALID,19.6406,VALID,108,VALID,0.98125,
2004-03-13, 01:42:00,VALID,918.209,VALID,0,VALID,98.9995,VALID,0.0169808,VALID,19.6247,VALID,102,VALID,0.558594,
2004-03-13, 01:43:00,VALID,918.189,VALID,0,VALID,99.0656,VALID,0.0169808,VALID,19.6051,VALID,113,VALID,0.816146,
2004-03-13, 01:44:00,VALID,918.162,VALID,0,VALID,99.1101,VALID,0,VALID,19.5793,VALID,106,VALID,0.678711,
2004-03-13, 01:45:00,VALID,918.15,VALID,0,VALID,99.1864,VALID,0.0169808,VALID,19.5691,VALID,96,VALID,0.665661,
2004-03-13, 01:46:00,VALID,918.13,VALID,0,VALID,99.2487,VALID,0,VALID,19.5668,VALID,94,VALID,0.495536,
2004-03-13, 01:47:00,VALID,918.105,VALID,0,VALID,99.2742,VALID,0,VALID,19.5539,VALID,116,VALID,1.10263,
2004-03-13, 01:48:00,VALID,918.094,VALID,0,VALID,99.2818,VALID,0,VALID,19.5343,VALID,111,VALID,1.14662,
2004-03-13, 01:49:00,VALID,918.081,VALID,0,VALID,99.2665,VALID,0.0169808,VALID,19.5154,VALID,105,VALID,1.05898,
2004-03-13, 01:50:00,VALID,918.073,VALID,0,VALID,99.2704,VALID,0,VALID,19.4856,VALID,91,VALID,0.882999,
2004-03-13, 01:51:00,VALID,918.049,VALID,0,VALID,99.2907,VALID,0.0169808,VALID,19.4695,VALID,88,VALID,0.713423,
2004-03-13, 01:52:00,VALID,918.026,VALID,0,VALID,99.1635,VALID,0,VALID,19.4737,VALID,123,VALID,1.11309,
2004-03-13, 01:53:00,VALID,918.002,VALID,0,VALID,98.9779,VALID,-0.0169808,VALID,19.4479,VALID,119,VALID,1.46257,
2004-03-13, 01:54:00,VALID,917.978,VALID,0,VALID,98.7617,VALID,0.0169808,VALID,19.4342,VALID,123,VALID,1.27046,
2004-03-13, 01:55:00,VALID,917.949,VALID,0,VALID,98.5888,VALID,0,VALID,19.4508,VALID,128,VALID,1.07118,
2004-03-13, 01:56:00,VALID,917.924,VALID,0,VALID,98.3866,VALID,0,VALID,19.4571,VALID,123,VALID,1.04613,
2004-03-13, 01:57:00,VALID,917.908,VALID,0,VALID,98.1895,VALID,0.0169808,VALID,19.46,VALID,128,VALID,1.60974,
2004-03-13, 01:58:00,VALID,917.913,VALID,0,VALID,98.0433,VALID,0,VALID,19.4804,VALID,124,VALID,1.49271,
2004-03-13, 01:59:00,VALID,917.915,VALID,0,VALID,98.0967,VALID,0,VALID,19.473,VALID,129,VALID,1.49716,
2004-03-13, 02:00:00,VALID,917.915,VALID,0,VALID,97.9275,VALID,0.0509425,VALID,19.4764,VALID,115,VALID,1.36719,
2004-03-13, 02:01:00,VALID,917.914,VALID,0,VALID,97.7711,VALID,0,VALID,19.4608,VALID,110,VALID,1.33346,
2004-03-13, 02:02:00,VALID,917.938,VALID,0,VALID,97.8004,VALID,0,VALID,19.4476,VALID,102,VALID,1.43914,
2004-03-13, 02:03:00,VALID,917.958,VALID,0,VALID,97.7304,VALID,0,VALID,19.4186,VALID,108,VALID,1.49876,
2004-03-13, 02:04:00,VALID,918,VALID,0,VALID,97.7012,VALID,0.0169808,VALID,19.4121,VALID,88,VALID,1.07951,
2004-03-13, 02:05:00,VALID,918.026,VALID,0,VALID,97.6567,VALID,0,VALID,19.4024,VALID,63,VALID,0.773793,
2004-03-13, 02:06:00,VALID,918.043,VALID,0,VALID,97.4189,VALID,0,VALID,19.3796,VALID,92,VALID,1.04688,
2004-03-13, 02:07:00,VALID,918.059,VALID,0,VALID,96.5567,VALID,0,VALID,19.3277,VALID,92,VALID,1.46566,
2004-03-13, 02:08:00,VALID,918.074,VALID,0,VALID,96.2134,VALID,-0.0169808,VALID,19.3376,VALID,97,VALID,0.99707,
2004-03-13, 02:09:00,VALID,918.059,VALID,0,VALID,96.0201,VALID,0.0169808,VALID,19.3371,VALID,89,VALID,0.956143,
2004-03-13, 02:10:00,VALID,918.034,VALID,0,VALID,95.926,VALID,0,VALID,19.3637,VALID,77,VALID,0.97603,
2004-03-13, 02:11:00,VALID,917.99,VALID,0,VALID,95.8612,VALID,0.0169808,VALID,19.3542,VALID,86,VALID,0.922447,
2004-03-13, 02:12:00,VALID,917.96,VALID,0,VALID,95.8841,VALID,0.0169808,VALID,19.3376,VALID,90,VALID,0.775484,
2004-03-13, 02:13:00,VALID,917.935,VALID,0,VALID,95.9858,VALID,0.0169808,VALID,19.3311,VALID,94,VALID,0.801258,
2004-03-13, 02:14:00,VALID,917.916,VALID,0,VALID,96.0659,VALID,0,VALID,19.3279,VALID,125,VALID,0.883956,
2004-03-13, 02:15:00,VALID,917.888,VALID,0,VALID,95.9718,VALID,0.0169808,VALID,19.3055,VALID,119,VALID,1.1081,
2004-03-13, 02:16:00,VALID,917.867,VALID,0,VALID,95.9604,VALID,0,VALID,19.2993,VALID,89,VALID,0.767361,
2004-03-13, 02:17:00,VALID,917.864,VALID,0,VALID,95.9286,VALID,0.0509425,VALID,19.3028,VALID,102,VALID,0.932958,
2004-03-13, 02:18:00,VALID,917.85,VALID,0,VALID,96.0125,VALID,0,VALID,19.2961,VALID,98,VALID,0.808594,
2004-03-13, 02:19:00,VALID,917.832,VALID,0,VALID,96.113,VALID,0,VALID,19.2864,VALID,92,VALID,0.540587,
2004-03-13, 02:20:00,VALID,917.832,VALID,0,VALID,96.2261,VALID,0,VALID,19.2829,VALID,69,VALID,0.761632,
2004-03-13, 02:21:00,VALID,917.829,VALID,0,VALID,96.1791,VALID,0,VALID,19.2606,VALID,69,VALID,0.739139,
2004-03-13, 02:22:00,VALID,917.836,VALID,0,VALID,96.2999,VALID,0,VALID,19.2248,VALID,69,VALID,0.816761,
2004-03-13, 02:23:00,VALID,917.829,VALID,0,VALID,96.5962,VALID,0,VALID,19.2122,VALID,69,VALID,0.86942,
2004-03-13, 02:24:00,VALID,917.809,VALID,0,VALID,96.7399,VALID,0,VALID,19.2027,VALID,72,VALID,1.15498,
2004-03-13, 02:25:00,VALID,917.794,VALID,0,VALID,96.9001,VALID,0,VALID,19.1863,VALID,77,VALID,1.22466,
2004-03-13, 02:26:00,VALID,917.782,VALID,0,VALID,97.0272,VALID,0.0169808,VALID,19.193,VALID,94,VALID,1.21602,
2004-03-13, 02:27:00,VALID,917.785,VALID,0,VALID,96.9026,VALID,0,VALID,19.1923,VALID,93,VALID,0.827734,
2004-03-13, 02:28:00,VALID,917.782,VALID,0,VALID,96.9319,VALID,0,VALID,19.199,VALID,96,VALID,0.92569,
2004-03-13, 02:29:00,VALID,917.793,VALID,0,VALID,96.8543,VALID,0.0169808,VALID,19.2253,VALID,93,VALID,0.875545,
2004-03-13, 02:30:00,VALID,917.8,VALID,0,VALID,96.6776,VALID,-0.0339617,VALID,19.2355,VALID,100,VALID,0.571039,
2004-03-13, 02:31:00,VALID,917.797,VALID,0,VALID,96.5313,VALID,-0.118866,VALID,19.2265,VALID,114,VALID,0.991655,
2004-03-13, 02:32:00,VALID,917.775,VALID,0,VALID,96.4906,VALID,-0.101885,VALID,19.2364,VALID,118,VALID,1.23637,
2004-03-13, 02:33:00,VALID,917.748,VALID,0,VALID,96.2363,VALID,-0.0679233,VALID,19.2494,VALID,114,VALID,1.21649,
2004-03-13, 02:34:00,VALID,917.723,VALID,0,VALID,96.0252,VALID,-0.101885,VALID,19.2583,VALID,108,VALID,1.17116,
2004-03-13, 02:35:00,VALID,917.722,VALID,0,VALID,95.8777,VALID,-0.101885,VALID,19.2876,VALID,108,VALID,1.06882,
2004-03-13, 02:36:00,VALID,917.74,VALID,0,VALID,95.6361,VALID,-0.101885,VALID,19.2943,VALID,102,VALID,0.836458,
2004-03-13, 02:37:00,VALID,917.731,VALID,0,VALID,95.4136,VALID,-0.0849042,VALID,19.3204,VALID,88,VALID,0.828125,
2004-03-13, 02:38:00,VALID,917.739,VALID,0,VALID,95.1415,VALID,-0.101885,VALID,19.3467,VALID,93,VALID,0.781432,
2004-03-13, 02:39:00,VALID,917.718,VALID,0,VALID,95.0168,VALID,-0.101885,VALID,19.3589,VALID,103,VALID,0.958629,
2004-03-13, 02:40:00,VALID,917.712,VALID,0,VALID,94.8579,VALID,-0.101885,VALID,19.3684,VALID,106,VALID,0.8875,
2004-03-13, 02:41:00,VALID,917.701,VALID,0,VALID,94.9749,VALID,-0.101885,VALID,19.3785,VALID,107,VALID,0.88457,
2004-03-13, 02:42:00,VALID,917.697,VALID,0,VALID,95.233,VALID,-0.101885,VALID,19.3492,VALID,114,VALID,0.896763,
2004-03-13, 02:43:00,VALID,917.698,VALID,0,VALID,95.5178,VALID,-0.101885,VALID,19.3169,VALID,117,VALID,0.882626,
2004-03-13, 02:44:00,VALID,917.697,VALID,0,VALID,95.7569,VALID,-0.101885,VALID,19.2712,VALID,117,VALID,0.886628,
2004-03-13, 02:45:00,VALID,917.691,VALID,0,VALID,95.9438,VALID,-0.0339617,VALID,19.232,VALID,117,VALID,0.911272,
2004-03-13, 02:46:00,VALID,917.701,VALID,0,VALID,96.0557,VALID,0,VALID,19.2025,VALID,118,VALID,0.890625,
2004-03-13, 02:47:00,VALID,917.686,VALID,0,VALID,96.2071,VALID,0.0169808,VALID,19.1801,VALID,118,VALID,0.850868,
2004-03-13, 02:48:00,VALID,917.694,VALID,0,VALID,96.3266,VALID,0,VALID,19.16,VALID,119,VALID,0.86899,
2004-03-13, 02:49:00,VALID,917.689,VALID,0,VALID,96.3686,VALID,0,VALID,19.154,VALID,125,VALID,0.53457,
2004-03-13, 02:50:00,VALID,917.682,VALID,0,VALID,96.4245,VALID,0.0169808,VALID,19.1476,VALID,139,VALID,0.780887,
2004-03-13, 02:51:00,VALID,917.679,VALID,0,VALID,96.3291,VALID,0,VALID,19.158,VALID,141,VALID,0.890625,
2004-03-13, 02:52:00,VALID,917.664,VALID,0,VALID,96.1994,VALID,0,VALID,19.1607,VALID,127,VALID,0.737424,
2004-03-13, 02:53:00,VALID,917.641,VALID,0,VALID,96.1422,VALID,0,VALID,19.1605,VALID,128,VALID,0.669531,
2004-03-13, 02:54:00,VALID,917.648,VALID,0,VALID,96.1626,VALID,0,VALID,19.1736,VALID,128,VALID,0.497396,
2004-03-13, 02:55:00,VALID,917.643,VALID,0,VALID,96.0926,VALID,0,VALID,19.1672,VALID,128,VALID,0.722656,
2004-03-13, 02:56:00,VALID,917.653,VALID,0,VALID,96.0227,VALID,0,VALID,19.167,VALID,128,VALID,0.639881,
2004-03-13, 02:57:00,VALID,917.672,VALID,0,VALID,95.9833,VALID,0,VALID,19.1766,VALID,127,VALID,0.402845,
2004-03-13, 02:58:00,VALID,917.685,VALID,0,VALID,95.9972,VALID,0,VALID,19.1801,VALID,127,VALID,0.29306,
2004-03-13, 02:59:00,VALID,917.686,VALID,0,VALID,96.0875,VALID,0.0169808,VALID,19.1536,VALID,126,VALID,0.436166,
2004-03-13, 03:00:00,VALID,917.676,VALID,0,VALID,96.0659,VALID,0,VALID,19.1215,VALID,84,VALID,0.590116,
2004-03-13, 03:01:00,VALID,917.68,VALID,0,VALID,96.0621,VALID,0,VALID,19.0569,VALID,58,VALID,0.830966,
2004-03-13, 03:02:00,VALID,917.687,VALID,0,VALID,96.3419,VALID,-0.0169808,VALID,19.0055,VALID,56,VALID,0.865282,
2004-03-13, 03:03:00,VALID,917.675,VALID,0,VALID,96.6178,VALID,0.0339617,VALID,18.9665,VALID,56,VALID,0.943164,
2004-03-13, 03:04:00,VALID,917.674,VALID,0,VALID,96.8607,VALID,0,VALID,18.9474,VALID,58,VALID,0.900981,
2004-03-13, 03:05:00,VALID,917.685,VALID,0,VALID,97.0997,VALID,0,VALID,18.9345,VALID,62,VALID,0.839931,
2004-03-13, 03:06:00,VALID,917.705,VALID,0,VALID,97.2282,VALID,0,VALID,18.938,VALID,63,VALID,0.638207,
2004-03-13, 03:07:00,VALID,917.724,VALID,0,VALID,97.3019,VALID,0.0169808,VALID,18.938,VALID,82,VALID,0.610243,
2004-03-13, 03:08:00,VALID,917.727,VALID,0,VALID,97.3413,VALID,0,VALID,18.9506,VALID,97,VALID,0.71875,
2004-03-13, 03:09:00,VALID,917.717,VALID,0,VALID,97.2739,VALID,0.0169808,VALID,18.9606,VALID,93,VALID,0.853468,
2004-03-13, 03:10:00,VALID,917.705,VALID,0,VALID,97.1137,VALID,0.0169808,VALID,18.9661,VALID,99,VALID,1.14005,
2004-03-13, 03:11:00,VALID,917.695,VALID,0,VALID,96.9217,VALID,0,VALID,19.0023,VALID,94,VALID,0.732279,
2004-03-13, 03:12:00,VALID,917.675,VALID,0,VALID,96.8378,VALID,0.0169808,VALID,19.0147,VALID,92,VALID,0.620206,
2004-03-13, 03:13:00,VALID,917.678,VALID,0,VALID,96.8174,VALID,-0.0169808,VALID,19.0122,VALID,89,VALID,0.660417,
2004-03-13, 03:14:00,VALID,917.65,VALID,0,VALID,96.9077,VALID,0.0169808,VALID,18.9924,VALID,87,VALID,0.721037,
2004-03-13, 03:15:00,VALID,917.654,VALID,0,VALID,96.9153,VALID,0,VALID,18.9963,VALID,86,VALID,0.598899,
2004-03-13, 03:16:00,VALID,917.644,VALID,0,VALID,96.9268,VALID,0,VALID,18.9834,VALID,76,VALID,0.744186,
2004-03-13, 03:17:00,VALID,917.645,VALID,0,VALID,96.9586,VALID,0,VALID,18.9668,VALID,73,VALID,0.76181,
2004-03-13, 03:18:00,VALID,917.644,VALID,0,VALID,97.0044,VALID,0.0169808,VALID,18.9705,VALID,69,VALID,0.654102,
2004-03-13, 03:19:00,VALID,917.638,VALID,0,VALID,96.9471,VALID,-0.0169808,VALID,18.9571,VALID,69,VALID,0.60637,
2004-03-13, 03:20:00,VALID,917.615,VALID,0,VALID,96.9293,VALID,0.0339617,VALID,18.9511,VALID,66,VALID,0.596112,
2004-03-13, 03:21:00,VALID,917.602,VALID,0,VALID,96.909,VALID,0,VALID,18.9285,VALID,63,VALID,0.613917,
2004-03-13, 03:22:00,VALID,917.59,VALID,0,VALID,96.9738,VALID,0.0169808,VALID,18.8992,VALID,57,VALID,0.770167,
2004-03-13, 03:23:00,VALID,917.567,VALID,0,VALID,97.1277,VALID,-0.0169808,VALID,18.896,VALID,50,VALID,0.816229,
2004-03-13, 03:24:00,VALID,917.55,VALID,0,VALID,97.129,VALID,0,VALID,18.9029,VALID,50,VALID,0.728795,
2004-03-13, 03:25:00,VALID,917.533,VALID,0,VALID,97.251,VALID,-0.0169808,VALID,18.8898,VALID,58,VALID,0.797783,
2004-03-13, 03:26:00,VALID,917.522,VALID,0,VALID,97.2167,VALID,0,VALID,18.9059,VALID,58,VALID,0.637695,
2004-03-13, 03:27:00,VALID,917.507,VALID,0,VALID,97.0934,VALID,0,VALID,18.9087,VALID,58,VALID,0.574673,
2004-03-13, 03:28:00,VALID,917.489,VALID,0,VALID,97.1086,VALID,0,VALID,18.9057,VALID,58,VALID,0.523983,
2004-03-13, 03:29:00,VALID,917.487,VALID,0,VALID,97.2243,VALID,-0.0169808,VALID,18.9029,VALID,58,VALID,0.457217,
2004-03-13, 03:30:00,VALID,917.489,VALID,0,VALID,97.3184,VALID,0,VALID,18.9054,VALID,58,VALID,0.405342,
2004-03-13, 03:31:00,VALID,917.483,VALID,0,VALID,97.3159,VALID,-0.0339617,VALID,18.9248,VALID,58,VALID,0.248698,
2004-03-13, 03:32:00,VALID,917.483,VALID,0,VALID,97.1951,VALID,0,VALID,18.9543,VALID,58,VALID,0.138081,
2004-03-13, 03:33:00,VALID,917.467,VALID,0,VALID,97.1417,VALID,0,VALID,18.9638,VALID,58,VALID,0,
2004-03-13, 03:34:00,VALID,917.447,VALID,0,VALID,97.1328,VALID,-0.0169808,VALID,18.9928,VALID,58,VALID,0,
2004-03-13, 03:35:00,VALID,917.426,VALID,0,VALID,97.0311,VALID,-0.0169808,VALID,18.9993,VALID,58,VALID,0.0108613,
2004-03-13, 03:36:00,VALID,917.419,VALID,0,VALID,96.9166,VALID,0,VALID,18.9961,VALID,58,VALID,0.283794,
2004-03-13, 03:37:00,VALID,917.422,VALID,0,VALID,96.8479,VALID,-0.0169808,VALID,19.0058,VALID,58,VALID,0.0288881,
2004-03-13, 03:38:00,VALID,917.422,VALID,0,VALID,96.937,VALID,0,VALID,19.0058,VALID,58,VALID,0.0965909,
2004-03-13, 03:39:00,VALID,917.422,VALID,0,VALID,96.9281,VALID,0,VALID,19.0085,VALID,63,VALID,0.281613,